Home > Weather > Emsdetten > Past weeks

Flag for Germany Past Weather in Emsdetten, North Rhine-Westphalia, Germany — Yesterday and Last 2 Weeks

Now
66 °F

Partly sunny.


Feels Like: 66 °F
Forecast: 57 / 74 °F
Wind: 8 mph from North

Location: Muenster / Osnabrueck

Current Time: May 27, 2016 at 4:15:59 PM

Latest Report: May 27, 2016 at 3:20 PM


Visibility: 5 mi

Pressure: 30.01 "Hg

Humidity: 68%

Dew Point: 55 °F

Location of EmsdettenLocation

Past Weather in Emsdetten — Graph

°F

Emsdetten Temperature Yesterday

Maximum temperature yesterday: 68 °F (at 5:20 PM)
Minimum temperature yesterday: 52 °F (at 2:50 AM)
Average temperature yesterday: 60 °F

High & Low Weather Summary for the Past Weeks

 TemperatureHumidityPressure
High77 °F (May 12, 4:50 PM)100% (May 19, 6:20 AM)30.09 "Hg (May 19, 6:20 AM)
Low36 °F (May 16, 3:50 AM)23% (May 13, 2:20 PM)29.53 "Hg (May 12, 3:20 PM)
Average56 °F71%29.91 "Hg
* Reported May 12 3:20 PM — May 27 3:20 PM, Emsdetten, Weather by CustomWeather, © 2016

Note: Actual official high and low records may vary slightly from our data, if they occured in-between our weather recording intervals... More about our weather records

Advertising

Emsdetten Weather History for the Previous 24 Hours

Scroll right to see more
 ConditionsComfort  
Time TempWeatherWind HumidityBarometerVisibility
3:20 PM
Fri, May 27
66 °FPartly sunny.8 mph68%30.01 "Hg5 mi
2:50 PM64 °FPartly sunny.8 mph73%30.01 "Hg5 mi
2:20 PM64 °FPartly sunny.9 mph73%30.01 "Hg5 mi
1:50 PM64 °FPartly sunny.9 mph73%30.01 "Hg5 mi
1:20 PM63 °FPartly sunny.10 mph73%30.01 "Hg5 mi
12:50 PM61 °FBroken clouds.12 mph77%30.01 "Hg6 mi
12:20 PM61 °FPartly sunny.9 mph77%30.01 "Hg5 mi
11:50 AM61 °FPartly sunny.9 mph77%30.01 "Hg6 mi
11:20 AM63 °FPartly sunny.10 mph73%30.01 "Hg6 mi
10:50 AM61 °FPartly sunny.8 mph77%30.01 "HgN/A
10:20 AM61 °FBroken clouds.9 mph77%30.01 "Hg6 mi
9:50 AM59 °FPartly sunny.7 mph82%30.01 "Hg6 mi
9:20 AM59 °FPartly sunny.8 mph82%30.01 "Hg4 mi
8:50 AM57 °FClear.8 mph88%30.01 "Hg4 mi
8:20 AM57 °FClear.7 mph82%30.01 "Hg4 mi
7:50 AM55 °FClear.7 mph88%30.01 "Hg5 mi
7:20 AM55 °FClear.6 mph88%30.01 "Hg4 mi
6:50 AM55 °FClear.5 mph88%30.01 "Hg4 mi
6:20 AM54 °FClear.6 mph88%30.01 "Hg4 mi
5:50 AM52 °FClear.5 mph94%30.01 "Hg4 mi
5:20 AM52 °FClear.3 mph94%30.01 "Hg5 mi
4:50 AM54 °FClear.6 mph88%30.01 "Hg5 mi
4:20 AM52 °FClear.5 mph94%30.01 "Hg5 mi
3:50 AM54 °FClear.5 mph88%30.01 "Hg5 mi
3:20 AM54 °FClear.6 mph88%30.01 "Hg5 mi
2:50 AM54 °FClear.6 mph88%30.01 "Hg5 mi
2:20 AM55 °FClear.6 mph82%30.01 "Hg6 mi
1:50 AM55 °FClear.7 mph88%30.01 "Hg6 mi
1:20 AM55 °FClear.7 mph88%30.01 "Hg5 mi
12:50 AM57 °FClear.6 mph82%30.04 "Hg5 mi
12:20 AM57 °FClear.6 mph82%30.04 "Hg5 mi
11:50 PM
Thu, May 26
57 °FClear.6 mph82%30.04 "Hg6 mi
11:20 PM59 °FPassing clouds.6 mph77%30.04 "HgN/A
10:50 PM59 °FPassing clouds.6 mph77%30.01 "HgN/A
10:20 PM59 °FPassing clouds.6 mph72%30.01 "HgN/A
9:50 PM61 °FPassing clouds.5 mph68%30.01 "HgN/A
9:20 PM63 °FPassing clouds.7 mph64%30.01 "HgN/A
8:50 PM63 °FSunny.8 mph64%30.01 "Hg10 mi
8:20 PM64 °FSunny.9 mph60%30.01 "Hg10 mi
7:50 PM66 °FPartly sunny.7 mph52%30.01 "HgN/A
7:20 PM66 °FPartly sunny.7 mph52%30.01 "HgN/A
6:50 PM68 °FScattered clouds.3 mph46%30.01 "HgN/A
6:20 PM68 °FScattered clouds.3 mph43%30.01 "HgN/A
5:50 PM68 °FScattered clouds.3 mph46%30.01 "HgN/A
5:20 PM68 °FScattered clouds.6 mph46%30.01 "HgN/A
4:50 PM66 °FPartly sunny.5 mph49%30.01 "HgN/A
4:20 PM66 °FPartly sunny.5 mph52%30.01 "HgN/A
Weather by CustomWeather, © 2016

See weather overviewHow to use our weather pages